Tracking 25612 objects as of 20-May-2022
HD Live streaming from Space Station
objects crossing your sky now

COSMOS 2251 DEB

Track COSMOS 2251 DEB now!
10-day predictions


NORAD ID: 35037
Int'l Code: 1993-036AHA
Perigee: 663.0 km
Apogee: 726.8 km
Inclination: 74.0 °
Period: 98.5 minutes
Semi major axis: 7065 km
RCS: 0.0081 m2 (small)
Launch date: June 16, 1993
Source: Commonwealth of Independent States (former USSR) (CIS)
Launch site: PLESETSK MISSILE AND SPACE COMPLEX (PKMTR)

Note: This is SATELLITE DEBRIS
aabbcc
Your satellite tracking list
Your tracking list is empty




NASA's NSSDC Master Catalog

Two Line Element Set (TLE):
1 35037U 93036AHA 22139.57248712  .00006774  00000-0  13458-2 0  9999
2 35037  74.0039 209.4749 0045172 330.2161  29.6434 14.61678078478671
Source of the keplerian elements: AFSPC